Regional Weather Roundup
Issued by NWS San Angelo, TX

Home | Current Version | Previous Version | Text Only | Print | Product List | Glossary On
Versions: 1 2 3 4 5 6 7 8 9 10 11 12 13 14 15 16 17 18 19 20 21 22 23 24 25 26 27 28 29 30 31 32 33 34 35 36 37 38 39 40 41 42 43 44 45 46 47 48 49 50
000
ASUS44 KSJT 060910
RWRSJT
WEST CENTRAL TEXAS REGIONAL WEATHER ROUNDUP
NATIONAL WEATHER SERVICE SAN ANGELO TX
400 AM CDT WED MAY 06 2015

NOTE: "FAIR" INDICATES FEW OR NO CLOUDS BELOW 12,000 FEET WITH NO
SIGNIFICANT WEATHER AND/OR OBSTRUCTIONS TO VISIBILITY.

TXZ049-054-064>066-071>073-076>078-098-099-113-114-127-128-139-140-
154-155-168>170-061000
...LOCATIONS ACROSS WEST CENTRAL TEXAS...

CITY           SKY/WX    TMP DP  RH WIND       PRES   REMARKS
SAN ANGELO     PTCLDY    68  64  87 S3        29.87F
ABILENE        CLEAR     67  64  90 S14       29.86F
DYESS AFB      CLEAR     66  65  94 S14       29.85F
JUNCTION       CLOUDY    71  67  87 S5        29.89F
SWEETWATER     PTCLDY    66  66 100 S15       29.90F
BROWNWOOD      CLOUDY    68  66  94 SE7       29.91F
COLEMAN        CLOUDY    68  66  94 SE7       29.90F
SONORA         CLOUDY    70  66  88 S9        29.93F
OZONA          PTSUNNY   70  64  83 S8        29.91F
BRADY          NOT AVBL
$$

TEXAS PANHANDLE/OKLAHOMA PANHANDLE

CITY           SKY/WX    TMP DP  RH WIND       PRES   REMARKS
AMARILLO       CLEAR     53  52  96 S12       29.80F
BORGER         CLEAR     57  53  86 S16G23    29.76F
CANADIAN       MOCLDY    57  55  91 S8        29.77F
DALHART        CLEAR     50  46  86 SW12      29.76F
DUMAS          SUNNY     50  47  89 S12       29.76F
GUYMON         NOT AVBL
HEREFORD       SUNNY     51  49  92 MISG      29.84S
PAMPA          CLOUDY    56  54  92 S20       29.79F
PERRYTON       CLEAR     52  50  93 S8        29.76F
$$

SOUTHERN PANHANDLE/SOUTH PLAINS/ROLLING PLAINS

CITY           SKY/WX    TMP DP  RH WIND       PRES   REMARKS
LUBBOCK        MOCLDY    62  60  93 S20G28    29.84S
SNYDER         CLOUDY    64  63  95 S8        29.88F
CHILDRESS      MOCLDY    63  61  93 S14       29.81S
SEMINOLE       MOSUNNY   61  60  96 S12       29.89F FOG
$$

PERMIAN BASIN

CITY           SKY/WX    TMP DP  RH WIND       PRES   REMARKS
MIDLAND        CLOUDY    67  62  84 S10       29.88F
ODESSA         MOCLDY    66  61  84 S9        29.89F
WINK           CLEAR     63  60  90 SE8       29.85F
$$

FAR WEST/SOUTHWEST MOUNTAINS/TRANS PECOS

CITY           SKY/WX    TMP DP  RH WIND       PRES   REMARKS
ALPINE         SUNNY     49  40  70 CALM      30.01F
DRYDEN           N/A     72  67  84 SE8       29.86S
EL PASO        CLEAR     66  39  37 N3        29.92F
FORT STOCKTON  CLEAR     64  62  93 S10       29.89R
GUADALUPE PASS CLEAR     54  34  46 S13       29.99S
MARFA          CLEAR     45  32  61 N3        29.99F
PECOS          SUNNY     53  48  83 CALM      29.86F
$$

DALLAS/FORT WORTH METROPLEX

CITY           SKY/WX    TMP DP  RH WIND       PRES   REMARKS
DFW AIRPORT    CLOUDY    69  67  93 SE14      29.93S
FTW MEACHAM    CLOUDY    70  68  93 SE14      29.92F
DAL-EXECUTIVE  CLOUDY    68  66  93 SE8       29.95R
GRAND PRAIRIE  PTCLDY    69  69 100 SE9       29.96R
ADDISON        CLOUDY   N/A N/A N/A S13G20    29.97R
MESQUITE       CLOUDY    68  67  94 SE13      29.96F
LANCASTER      RAIN      67  65  91 SE5       29.97S
$$

NORTH CENTRAL TEXAS

CITY           SKY/WX    TMP DP  RH WIND       PRES   REMARKS
SHRMAN/DENISON CLOUDY    69  68  98 SE14      29.96R THUNDER
GAINESVILLE    CLOUDY    67  66  95 SE15      29.94F
BRIDGEPORT     MOSUNNY   69  67  96 S12G20    29.92F
DENTON         LGT RAIN  68  67  96 SE23G35   29.91F FOG
WAXAHACHIE     CLOUDY    68  68 100 SE7G16    29.97S
GRANBURY         N/A     70  67  88 SE10G17   29.92F
$$

WESTERN NORTH TEXAS

CITY           SKY/WX    TMP DP  RH WIND       PRES   REMARKS
WICHITA FALLS  CLOUDY    67  64  90 S14       29.86F
VERNON         SUNNY     65  60  84 S9        29.84S
BRECKENRIDGE   PTSUNNY   70  65  84 S12G17    29.88S
COMANCHE       CLOUDY    68  68 100 SE8       29.92F
$$

CENTRAL AND SOUTH CENTRAL TEXAS

CITY           SKY/WX    TMP DP  RH WIND       PRES   REMARKS
AUSTIN/BERGSTM CLOUDY    71  71 100 S13       29.91S
WACO           MOCLDY    69  67  93 SE12      29.93F
HILLSBORO      MOSUNNY   69  66  90 SE13G22   29.95S
TEMPLE         CLOUDY    68  63  83 SE17      29.93F
KILLEEN-GRAY   CLOUDY    68  67  97 SE12      29.91S
FORT HOOD      CLOUDY    68  66  94 SE13      29.91F
GEORGETOWN     CLOUDY    72  70  94 S7G16     29.92S
LAGO VISTA     CLOUDY    70  69  94 S9G17     29.93S FOG
SAN MARCOS     CLOUDY    72  68  88 S14       29.92F
NEW BRAUNFELS  CLOUDY    73  70  90 S13       29.90F
RANDOLPH AFB   CLOUDY    72  70  94 S13       29.91F
SAN ANTONIO    CLOUDY    73  69  87 SE13      29.91F
STINSON        CLOUDY    72  70  93 SE6       29.89S FOG
PLEASANTON     NOT AVBL
LA GRANGE      MOCLDY    74  71  90 SE10      29.91R
GIDDINGS       CLOUDY    71  68  90 S13G20    29.94R
$$

EAST TEXAS

CITY           SKY/WX    TMP DP  RH WIND       PRES   REMARKS
PARIS          CLOUDY    68  59  73 MISG      30.02R
CLARKSVILLE    NOT AVBL
TYLER          MOCLDY    68  64  87 SE6       30.00R
LONGVIEW       CLOUDY    69  63  81 SE9       30.00F
PALESTINE      PTSUNNY   69  66  90 E7        29.99S
NACOGDOCHES    MOCLDY    68  63  83 SE6       30.00S
$$

TEXAS HILL COUNTRY AND EDWARDS PLATEAU

CITY           SKY/WX    TMP DP  RH WIND       PRES   REMARKS
LLANO          CLOUDY    70  70 100 CALM      29.93S
HORSESHOE BAY  CLOUDY    72  68  88 S8G18     29.91S
KERRVILLE      LGT RAIN  69  67  94 S13G23    29.93R
FREDERICKSBRG  CLOUDY    69  66  90 S10       29.92S
ROCKSPRINGS    CLOUDY    68  68 100 S14       29.93S FOG
HONDO          CLOUDY    72  69  90 SE12      29.92S
UVALDE         CLOUDY    71  69  93 SE10      29.90S
DEL RIO        CLOUDY    73  70  90 SE14      29.83F
$$

SOUTHEAST TEXAS

CITY           SKY/WX    TMP DP  RH WIND       PRES   REMARKS
COLLEGE STN    CLOUDY    70  67  90 SE10      29.93F
CALDWELL       TSTM      70  70 100 SE10      29.95R
CROCKETT       NOT AVBL
BRENHAM        CLOUDY    73  69  87 SE14      29.92F
HUNTSVILLE     CLOUDY    72  66  81 VRB6      29.96R
CONROE         CLOUDY    70  67  90 SE9       29.95F
HOUSTON BUSH   CLOUDY    74  68  81 SE14      29.95F
HOUSTON HOBBY  MOCLDY    74  68  81 SE6       29.96S
PERLAND        PTCLDY    75  68  78 SE12      29.98F
WHARTON        PTSUNNY   72  70  93 SE9       29.95S
$$

THE UPPER TEXAS COAST

CITY           SKY/WX    TMP DP  RH WIND       PRES   REMARKS
ORANGE         MOSUNNY   71  64  79 E7        30.01F
PORT ARTHUR    CLOUDY    73  67  81 SE12      29.99F
GALVESTON      CLOUDY    75  71  87 SE17      29.97F
ANGLETON       CLOUDY    73  70  90 SE9       29.96S
BAY CITY       CLOUDY    73  73  98 SE8       29.93F
$$

TEXAS COASTAL BEND, RIO GRANDE PLAINS DEEP SOUTH TEXAS

CITY           SKY/WX    TMP DP  RH WIND       PRES   REMARKS
VICTORIA       LGT RAIN  75  72  90 S15G22    29.93R
BEEVILLE       CLOUDY    74  74 100 SE8       29.90F
ROCKPORT       CLOUDY    77  72  84 SE18      29.90F
PORT ARANSAS   CLOUDY    75  73  92 SE15G23   29.89F
PORT LAVACA    CLOUDY    75  72  88 SE10      29.92S
CORPUS CHRISTI CLOUDY    78  71  79 SE16      29.89F
KINGSVILLE NAS CLOUDY    76  75  97 SE14      29.88F
COTULLA        CLOUDY    75  68  78 SE12      29.87F
LAREDO         CLOUDY    75  70  85 SE9       29.86F
BROWNSVILLE    CLOUDY    76  73  91 SE14G23   29.87F
PORT ISABEL    PTCLDY    76  71  85 SE14      29.86F
HEBBRONVILLE     N/A     73  70  90 SE12      29.87F
MCALLEN        CLOUDY    78  73  84 SE13      29.85F
WESLACO          N/A     75  71  86 SE8G16    29.86S
FALFURRIAS     CLOUDY    76  71  86 SE10      29.86F
EDINBURG       CLOUDY    77  72  83 SE9       29.86F
$$



USA.gov is the U.S. government's official web portal to all federal, state and local government web resources and services.